Simultaneous Nadir Overpasses (SNOs) Predictions

Prediction of SNOs over PacNW region [( 10.00, 139.50) to ( 22.70, 165.60)] between AQUA and NPP Satellites:

Table of predicted SNOs over PacNW region for the next 30.0 days since TLE Epoch: 2/25/2017
Index Date (AQUA) Time (AQUA) AQUA Lat,Lon Date (NPP) Time (NPP) NPP Lat,Lon Distance(km) Time Diff (sec)
1 02/25/2017 15:59:25 22.60, 147.49 02/25/2017 16:01:48 23.26, 144.55 309.45 143
2 03/05/2017 15:10:01 22.58, 159.85 03/05/2017 15:10:59 23.15, 157.23 275.41 58
3 03/08/2017 03:31:52 22.68, 147.52 03/08/2017 03:28:23 26.82, 144.71 540.98 209
4 03/13/2017 15:59:29 22.61, 147.51 03/13/2017 16:01:37 23.23, 144.59 306.75 128
5 03/21/2017 15:10:02 22.59, 159.88 03/21/2017 15:10:46 23.19, 157.29 273.61 44




NCC Satellite Simultaneous Nadir Overpasses (SNOs) Prediction Service
